{"data":{"norad_id":52708,"intl_designator":"2022-053BE","name":"STARLINK-3962","alt_names":[],"object_type":"PAYLOAD","status":"ACTIVE","operator":null,"country":"US","launch_date":"2022-05-18","launch_site_code":"AFETR","launch_vehicle":null,"mission":null,"orbit_class":"UNKNOWN","rcs_meters":null,"size_class":null,"mass_kg":null,"dimensions":null,"purposes":["comms"],"wikipedia_slug":null,"has_3d_model":false,"image_url":null,"decayed_at":null,"tle_current":{"epoch":"2026-05-24T17:56:41.858880Z","epoch_age_seconds":96619,"freshness":"FRESH","line1":"1 52708U 22053BE  26144.74770670  .00000229  00000+0  32441-4 0  9999","line2":"2 52708  53.2151 152.6708 0001097  68.9546 291.1563 15.08839303223009","mean_motion":15.08839303,"eccentricity":0.0001097,"inclination_deg":53.2151,"raan_deg":152.6708,"arg_perigee_deg":68.9546,"mean_anomaly_deg":291.1563,"bstar":3.2441e-5,"rev_number":22300,"period_min":95.437598764618,"perigee_km":538.9866277027,"apogee_km":540.50441112746,"semimajor_km":6917.8825194151,"source":"CELESTRAK","updated_at":"2026-05-25T13:38:17.239880Z"}}}